Location: Mahannah Oil Field
(37.4664°N, 96.6003°W)
Time: 08:12:36
(UTC+00:00)

Tiros 1 despin weight - Pass Details

Date: 22 January 2021
Orbit: 593 x 642 km, 48.2° (Epoch: 05 March)

Event Time Altitude Azimuth Distance (km) Brightness Sun altitude
Rises 01:57:06 0° 305° (NW) 2,846 ? -27.2°
Reaches altitude 10° 01:59:40 10° 317° (NW) 1,936 ? -27.7°
Enters shadow 02:01:27 20° 335° (NNW) 1,408 ? -28.1°
